Regional Weather Roundup
Issued by NWS

Home | Current Version | Previous Version | Graphics & Text | Print | Product List | Glossary On
Versions: 1 2 3 4 5 6 7 8 9 10 11 12 13 14 15 16 17 18 19 20 21 22 23 24 25 26 27 28 29 30 31 32 33 34 35 36 37 38 39 40 41 42 43 44 45 46 47 48 49 50
000
ASUS43 KFSD 181210
RWRSD

WEATHER ROUNDUP FOR SOUTH DAKOTA
NATIONAL WEATHER SERVICE SIOUX FALLS SD
600 AM CST SUN FEB 18 2018

NOTE: "FAIR" INDICATES FEW OR NO CLOUDS BELOW 12,000 FEET WITH NO
SIGNIFICANT WEATHER AND/OR OBSTRUCTIONS TO VISIBILITY.


SDZ001>005-009-010-012>017-181300-
NORTHWEST AND NORTH CENTRAL SOUTH DAKOTA

CITY           SKY/WX    TMP DP  RH WIND       PRES   REMARKS
BUFFALO          N/A     15  11  83 NE8       29.41R WCI   4
FAITH            N/A     15  15 100 N9        29.46R WCI   3
MOBRIDGE         N/A     23  17  78 E20G29    29.46F WCI   8
$$

SDZ012>016-024>037-041>051-057-063-072>074-181300-
SOUTHWEST AND SOUTH CENTRAL SOUTH DAKOTA

CITY           SKY/WX    TMP DP  RH WIND       PRES   REMARKS
RAPID CTY ARPT MOCLDY    19  16  88 N25G32    29.43R WCI   1
PIERRE         CLOUDY    30  24  78 E12       29.41F WCI  20
CUSTER         CLOUDY    37  14  38 W9        29.41R
ELLSWORTH AFB  CLOUDY    18  18 100 N31G39    29.44  SQUALL  WCI  -2
PHILIP         CLOUDY    27  22  81 W7        29.40R WCI  19
PINE RIDGE     CLOUDY    40  24  53 S20       29.41F
SPEARFISH        N/A     18  16  93 W13       29.49R WCI   4
WINNER         FAIR      42  22  44 S29G36    29.44F
$$

SDZ004>011-016>023-039-040-181300-
NORTHEAST SOUTH DAKOTA

CITY           SKY/WX    TMP DP  RH WIND       PRES   REMARKS
ABERDEEN       CLOUDY    27  19  72 E12       29.59F WCI  17
WATERTOWN      CLOUDY    29  22  75 SE23G31   29.60F WCI  15
BROOKINGS      CLOUDY    29  22  75 S28G36    29.64F WCI  14
$$

SDZ017-020-022-023-036>040-048>070-181300-
SOUTHEAST SOUTH DAKOTA

CITY           SKY/WX    TMP DP  RH WIND       PRES   REMARKS
SIOUX FALLS    CLOUDY    30  22  72 S24G33    29.69F WCI  16
HURON          CLOUDY    29  24  82 S21G31    29.52F WCI  16
CHAMBERLAIN    CLOUDY    41  25  53 S17       29.47F
MITCHELL       MOCLDY    31  24  75 SE22      29.57F WCI  18
YANKTON        CLEAR     33  22  63 SE13      29.66F WCI  24
$$

ABBREVIATIONS USED IN REMARKS
   TC - TEMPERATURE IN CELSIUS
  WCI - WIND CHILL INDEX
   HX - HEAT INDEX
  VSB - VISIBILITY





USA.gov is the U.S. government's official web portal to all federal, state and local government web resources and services.